Location: Dilsberg
(49.3983°N, 8.8354°E)
Time: 17:23:17
(UTC+00:00)

CZ-4 R/B - Pass Details

Date: 19 May 2025
Orbit: 499 x 550 km, 97.6° (Epoch: 16 June)

Event Time Altitude Azimuth Distance (km) Brightness Sun altitude
Rises 20:24:59 0° 219° (SW) 2,718 4.8 -10.4°
Reaches altitude 10° 20:28:46 10° 257° (WSW) 1,828 4.4 -10.8°
Maximum altitude 20:29:49 11° 273° (W) 1,773 4.6 -10.9°
Drops below altitude 10° 20:30:52 10° 288° (WNW) 1,828 5.0 -11.0°
Sets 20:34:40 0° 326° (NNW) 2,720 7.0 -11.4°
